Weather History for Philadelphia Wings Airport, PA

Change the Weather History Date:

Tuesday, February 25, 2014

  Actual Average (KPNE) Record (KPNE)
Temperature  
Mean Temperature 27 °F -  
Max Temperature 33 °F 44 °F 60 °F (2011)
Min Temperature 21 °F 28 °F 19 °F (1997)
Degree Days  
Heating Degree Days 38    
Moisture  
Dew Point 16 °F    
Average Humidity 60    
Maximum Humidity 80    
Minimum Humidity 44    
Precipitation  
Precipitation 0.00 in - - ()
Sea Level Pressure  
Sea Level Pressure 30.03 in    
Wind  
Wind Speed 3 mph (West)    
Max Wind Speed 13 mph    
Max Gust Speed 20 mph    
Visibility 9 miles    
Events      
Averages and records for this station are not official NWS values.
T = Trace of Precipitation, MM = Missing Value Source: NWS Daily Summary

Daily Weather History Graph

Daily Weather History Graph

Search for Another Location

Airport:

Trip Planner

Search our weather history database for the weather conditions in past years. The results will help you decide how hot, cold, wet, or windy it might be!

Date:

Astronomy

Feb. 25, 2014 Rise Set
Actual Time 6:40 AM EST 5:48 PM EST
Civil Twilight 6:13 AM EST 6:15 PM EST
Nautical Twilight 5:41 AM EST 6:47 PM EST
Astronomical Twilight 5:10 AM EST 7:18 PM EST
Moon 3:33 AM EST (2/25) 1:51 PM EST (2/25)
Length of Visible Light 12h 02m
Length of Day
11h 07m
Waning Crescent, 18% of the Moon is Illuminated
Feb 25
Waning Crescent
Mar 1
New
Mar 8
First Quarter
Mar 16
Full
Mar 23
Last Quarter

Hourly Weather History & Observations

Time (EST) Temp. Windchill Dew Point Humidity Pressure Visibility Wind Dir Wind Speed Gust Speed Precip Events Conditions
12:15 AM 30.2 °F - 10.4 °F 44% 30.10 in 10.0 mi Calm Calm - N/A   Clear
12:35 AM 30.2 °F - 10.4 °F 44% 30.09 in 10.0 mi Calm Calm - N/A   Clear
12:55 AM 28.4 °F - 10.4 °F 47% 30.10 in 10.0 mi Calm Calm - N/A   Clear
1:15 AM 28.4 °F - 12.2 °F 51% 30.10 in 10.0 mi Calm Calm - N/A   Clear
1:35 AM 24.8 °F - 14.0 °F 64% 30.09 in 10.0 mi Calm Calm - N/A   Clear
1:50 AM 23.0 °F - 15.8 °F 74% 30.08 in 10.0 mi Calm Calm - N/A   Clear
2:15 AM 23.0 °F - 14.0 °F 68% 30.08 in 10.0 mi Calm Calm - N/A   Clear
2:30 AM 23.0 °F - 14.0 °F 68% 30.08 in 10.0 mi Calm Calm - N/A   Clear
2:55 AM 21.2 °F - 14.0 °F 74% 30.08 in 10.0 mi Calm Calm - N/A   Clear
3:15 AM 21.2 °F - 15.8 °F 80% 30.08 in 10.0 mi Calm Calm - N/A   Clear
4:50 AM 24.8 °F - 14.0 °F 64% 30.07 in 10.0 mi Calm Calm - N/A   Clear
5:15 AM 26.6 °F - 14.0 °F 59% 30.07 in 10.0 mi Calm Calm - N/A   Clear
5:30 AM 26.6 °F - 14.0 °F 59% 30.07 in 10.0 mi Calm Calm - N/A   Clear
5:55 AM 28.4 °F - 14.0 °F 55% 30.07 in 10.0 mi Calm Calm - N/A   Clear
6:15 AM 28.4 °F - 14.0 °F 55% 30.08 in 10.0 mi Calm Calm - N/A   Clear
6:35 AM 28.4 °F - 14.0 °F 55% 30.07 in 10.0 mi Calm Calm - N/A   Clear
6:55 AM 28.4 °F - 14.0 °F 55% 30.08 in 10.0 mi Calm Calm - N/A   Clear
7:15 AM 28.4 °F - 14.0 °F 55% 30.08 in 10.0 mi Calm Calm - N/A   Clear
7:35 AM 28.4 °F 24.6 °F 14.0 °F 55% 30.08 in 10.0 mi WSW 3.5 mph - N/A   Clear
7:55 AM 28.4 °F 22.2 °F 14.0 °F 55% 30.09 in 10.0 mi WSW 5.8 mph - N/A   Clear
8:15 AM 30.2 °F 26.7 °F 14.0 °F 51% 30.09 in 10.0 mi WSW 3.5 mph - N/A   Clear
8:35 AM 30.2 °F 24.3 °F 14.0 °F 51% 30.09 in 10.0 mi WSW 5.8 mph - N/A   Clear
8:55 AM 30.2 °F 23.4 °F 14.0 °F 51% 30.08 in 10.0 mi SW 6.9 mph - N/A   Clear
9:15 AM 30.2 °F 21.9 °F 14.0 °F 51% 30.09 in 10.0 mi WSW 9.2 mph - N/A   Clear
9:35 AM 30.2 °F 20.2 °F 17.6 °F 60% 30.09 in 10.0 mi WSW 12.7 mph 17.3 mph N/A   Scattered Clouds
9:55 AM 30.2 °F 21.3 °F 19.4 °F 64% 30.08 in 10.0 mi WSW 10.4 mph - N/A   Mostly Cloudy
10:15 AM 30.2 °F 23.4 °F 21.2 °F 69% 30.08 in 4.0 mi WSW 6.9 mph - N/A   Overcast
10:40 AM 30.2 °F 21.9 °F 23.0 °F 75% 30.07 in 2.0 mi WSW 9.2 mph - N/A   Overcast
11:00 AM 30.2 °F 24.3 °F 23.0 °F 75% 30.06 in 2.0 mi West 5.8 mph - N/A   Overcast
11:15 AM 30.2 °F 23.4 °F 24.8 °F 80% 30.06 in 1.8 mi WSW 6.9 mph - N/A   Overcast
11:35 AM 30.2 °F 23.4 °F 24.8 °F 80% 30.05 in 3.0 mi WSW 6.9 mph - N/A   Overcast
12:20 PM 32.0 °F 26.4 °F 23.0 °F 69% 30.03 in 5.0 mi West 5.8 mph 16.1 mph N/A   Overcast
12:35 PM 32.0 °F 24.8 °F 23.0 °F 69% 30.02 in 7.0 mi West 8.1 mph 16.1 mph N/A   Mostly Cloudy
12:55 PM 32.0 °F 24.8 °F 21.2 °F 64% 30.01 in 10.0 mi West 8.1 mph 19.6 mph N/A   Scattered Clouds
1:10 PM 32.0 °F 24.2 °F 19.4 °F 60% 30.00 in 10.0 mi West 9.2 mph 19.6 mph N/A   Scattered Clouds
1:35 PM 32.0 °F 24.2 °F 19.4 °F 60% 29.99 in 10.0 mi WSW 9.2 mph - N/A   Mostly Cloudy
1:55 PM 33.8 °F 27.7 °F 21.2 °F 60% 29.98 in 10.0 mi West 6.9 mph 16.1 mph N/A   Mostly Cloudy
2:15 PM 32.0 °F 25.6 °F 19.4 °F 60% 29.98 in 10.0 mi West 6.9 mph 16.1 mph N/A   Scattered Clouds
2:35 PM 32.0 °F 25.6 °F 19.4 °F 60% 29.97 in 10.0 mi West 6.9 mph 17.3 mph N/A   Clear
2:55 PM 32.0 °F 25.6 °F 19.4 °F 60% 29.97 in 10.0 mi West 6.9 mph - N/A   Clear
3:15 PM 33.8 °F 25.8 °F 17.6 °F 52% 29.96 in 10.0 mi West 10.4 mph 16.1 mph N/A   Clear
3:35 PM 33.8 °F 27.7 °F 17.6 °F 52% 29.96 in 10.0 mi West 6.9 mph 18.4 mph N/A   Scattered Clouds
3:55 PM 32.0 °F 24.8 °F 17.6 °F 55% 29.96 in 10.0 mi WNW 8.1 mph - N/A   Scattered Clouds
4:10 PM 32.0 °F 25.6 °F 17.6 °F 55% 29.96 in 10.0 mi WNW 6.9 mph - N/A   Scattered Clouds
4:35 PM 32.0 °F 24.8 °F 17.6 °F 55% 29.96 in 10.0 mi WNW 8.1 mph 18.4 mph N/A   Clear
4:50 PM 32.0 °F 25.6 °F 14.0 °F 48% 29.97 in 10.0 mi West 6.9 mph - N/A   Scattered Clouds
5:10 PM 32.0 °F 26.4 °F 14.0 °F 48% 29.97 in 10.0 mi West 5.8 mph - N/A   Clear
5:30 PM 32.0 °F 23.6 °F 14.0 °F 48% 29.98 in 10.0 mi WNW 10.4 mph - N/A   Clear
5:55 PM 32.0 °F 28.7 °F 14.0 °F 48% 29.98 in 10.0 mi WNW 3.5 mph - N/A   Scattered Clouds
6:10 PM 32.0 °F - 14.0 °F 48% 29.98 in 10.0 mi Calm Calm - N/A   Scattered Clouds
6:35 PM 32.0 °F 27.5 °F 12.2 °F 44% 29.99 in 10.0 mi WNW 4.6 mph - N/A   Clear
6:55 PM 30.2 °F - 12.2 °F 47% 29.99 in 10.0 mi Calm Calm - N/A   Clear
7:15 PM 30.2 °F 26.7 °F 12.2 °F 47% 29.99 in 10.0 mi WNW 3.5 mph - N/A   Clear
7:35 PM 30.2 °F - 14.0 °F 51% 30.01 in 10.0 mi Calm Calm - N/A   Clear
7:50 PM 30.2 °F - 14.0 °F 51% 30.01 in 10.0 mi Calm Calm - N/A   Clear
8:15 PM 28.4 °F - 14.0 °F 55% 30.01 in 10.0 mi Calm Calm - N/A   Clear
8:30 PM 28.4 °F - 14.0 °F 55% 30.01 in 10.0 mi Calm Calm - N/A   Clear
8:55 PM 26.6 °F - 14.0 °F 59% 30.01 in 10.0 mi Calm Calm - N/A   Clear
9:15 PM 26.6 °F - 17.6 °F 69% 30.01 in 10.0 mi Calm Calm - N/A   Clear
9:35 PM 24.8 °F - 15.8 °F 69% 30.01 in 10.0 mi Calm Calm - N/A   Clear
9:55 PM 24.8 °F - 14.0 °F 64% 30.01 in 10.0 mi Calm Calm - N/A   Clear
10:10 PM 23.0 °F - 17.6 °F 80% 30.01 in 10.0 mi Calm Calm - N/A   Clear
10:35 PM 26.6 °F - 15.8 °F 64% 30.00 in 10.0 mi Calm Calm - N/A   Clear
10:55 PM 24.8 °F - 14.0 °F 64% 29.99 in 10.0 mi Calm Calm - N/A   Clear
11:15 PM 24.8 °F - 15.8 °F 69% 29.98 in 10.0 mi Calm Calm - N/A   Clear
11:35 PM 23.0 °F - 14.0 °F 68% 29.98 in 10.0 mi Calm Calm - N/A   Clear
11:55 PM 23.0 °F - 17.6 °F 80% 29.98 in 10.0 mi Calm Calm - N/A   Clear